Wind_Speed
43 42 40 40 40 38 37 35 33 32 31 30 29 29 29 29 28 27 27 27 27 27 26 26 25 23 22 21 21 21 21 22 23 24 24 23 22 22 21 20 20 19 19 18 18 17 16 15 15 14 14 15 15 14 14 13 14 14 15 16 17 18 18 20 23 24 21 18 17 16 16 17 17 17 17 18 19 19 21 23 23 24 25 25 26
45 43 41 41 40 38 37 36 35 34 32 31 29 29 29 29 28 28 27 27 27 27 27 26 26 24 24 23 22 21 21 21 22 24 25 24 24 23 23 22 21 20 19 19 18 17 17 16 16 15 15 15 16 16 16 15 15 15 16 16 17 18 18 19 22 24 25 23 22 22 21 21 21 21 21 22 23 23 24 26 26 27 28 29 29
45 44 43 41 39 38 37 37 36 35 34 32 30 29 28 28 29 29 28 27 27 27 27 27 27 26 25 25 23 23 22 21 22 24 25 25 24 24 23 22 22 21 20 19 18 18 18 17 17 16 16 16 16 17 17 17 16 16 17 17 18 18 19 19 21 24 26 27 26 25 25 25 25 24 24 25 26 27 28 29 29 30 31 32 32
46 44 43 42 40 39 38 37 37 36 35 34 31 29 29 29 29 29 28 28 28 28 28 28 28 28 28 27 26 25 24 23 23 23 24 25 24 24 23 23 22 22 21 20 20 19 19 18 17 17 18 18 18 18 18 18 18 18 19 19 19 19 20 20 21 23 25 27 27 26 25 26 26 26 26 27 27 28 29 30 31 32 32 33 34
47 45 44 43 42 41 40 38 38 36 36 35 33 31 30 29 29 28 29 29 29 29 29 29 29 30 29 29 28 27 26 25 25 25 25 25 24 24 24 23 23 23 23 22 21 21 20 19 18 18 19 19 18 18 18 18 19 19 19 20 21 21 22 22 22 23 25 28 29 28 27 27 27 27 27 29 29 30 31 31 31 32 33 33 34
47 45 45 45 45 44 42 40 39 37 36 35 34 32 31 30 29 28 28 28 29 30 30 30 31 30 30 29 29 28 28 27 27 27 26 26 26 25 25 24 24 24 24 24 23 22 21 20 20 20 20 19 19 19 19 20 20 20 20 21 21 22 23 23 24 25 26 28 30 30 30 29 30 30 29 30 32 33 34 34 34 34 34 35 35
48 47 46 46 46 45 43 41 40 38 37 35 34 33 32 31 29 28 27 28 29 30 30 31 31 31 30 30 29 29 29 29 29 28 28 28 27 27 26 25 25 25 25 25 24 24 23 22 22 22 21 21 20 21 21 22 22 22 22 22 22 23 24 24 25 26 27 29 31 32 32 32 32 33 32 32 33 35 36 36 37 37 36 36 37
49 47 47 47 47 45 43 41 40 38 37 35 34 33 32 31 30 28 28 28 29 30 30 31 31 31 31 31 30 30 30 30 30 30 30 29 28 28 27 27 27 27 27 26 26 26 26 25 25 24 23 23 22 23 23 23 24 24 23 23 24 24 25 25 26 27 28 30 31 32 33 33 34 34 34 34 35 37 36 35 38 39 38 37 38
49 47 47 48 46 44 42 41 40 39 37 35 34 33 32 32 31 30 30 29 29 29 30 30 31 31 31 31 31 31 31 32 32 32 31 30 30 29 29 29 29 29 29 28 27 27 27 26 26 25 25 24 23 23 24 24 24 24 24 24 24 24 25 25 26 27 28 30 31 31 32 34 35 34 35 35 35 36 35 34 36 37 37 38 39
48 47 47 47 45 43 42 41 40 39 38 36 35 34 33 33 32 32 31 30 30 30 30 31 31 31 31 32 32 32 33 33 33 33 32 31 30 30 30 30 30 30 29 29 28 28 27 27 26 26 25 25 24 24 23 23 24 24 23 23 24 24 24 24 25 27 28 30 31 30 31 34 35 34 34 34 33 34 33 33 34 35 35 38 41
47 47 47 46 44 42 41 41 40 39 38 37 36 35 34 34 34 33 33 32 31 31 31 31 31 31 32 33 33 34 35 35 34 33 32 32 31 31 31 31 30 30 30 29 29 28 28 28 27 26 26 25 24 24 23 23 23 24 23 22 22 23 23 24 25 26 27 29 31 30 32 36 36 34 33 32 31 31 31 32 34 34 36 39 42
46 47 46 44 42 41 41 41 40 39 39 38 36 35 35 35 35 35 34 33 33 32 32 31 31 32 33 34 35 35 36 36 34 34 33 32 32 31 31 31 31 31 30 30 30 29 28 28 27 27 26 25 24 24 24 24 23 23 23 22 21 21 22 23 24 25 26 28 30 32 34 36 36 35 32 29 29 31 33 34 35 35 37 41 43
46 46 45 43 42 41 41 40 39 39 38 37 36 35 36 36 36 36 35 34 34 34 33 32 32 32 33 34 36 36 37 36 35 34 34 33 32 31 31 32 31 31 31 31 30 29 29 28 27 27 26 25 24 23 24 24 23 22 21 21 21 21 21 22 23 23 24 26 30 33 34 35 35 34 31 28 29 32 36 36 35 36 40 42 44
45 45 44 42 41 40 39 39 38 38 36 36 36 36 37 37 37 36 35 35 35 35 33 32 33 33 33 34 36 37 37 37 36 35 34 34 33 32 32 32 32 32 31 31 31 30 29 29 28 27 26 26 24 22 22 22 21 21 21 21 21 21 21 22 22 22 23 25 29 32 33 34 34 33 31 30 31 33 35 36 36 40 43 45 46
44 44 43 42 41 40 39 38 38 37 36 36 36 37 37 37 36 35 35 36 36 35 34 34 34 33 33 33 35 37 38 37 36 35 34 34 33 33 33 32 32 32 32 31 31 30 30 29 28 27 26 25 23 20 19 18 19 20 20 21 21 21 22 22 20 20 22 24 27 30 32 33 33 32 32 32 33 33 34 36 38 40 43 44 46
43 43 43 42 40 39 38 38 36 35 35 35 36 36 36 36 35 35 35 35 35 34 34 34 34 33 32 33 34 36 37 37 36 36 34 33 33 33 33 33 32 32 32 32 31 30 29 29 28 26 25 24 22 18 16 16 17 19 20 21 21 22 24 23 20 20 20 22 25 27 30 33 33 34 33 31 32 32 32 35 36 36 39 42 45
43 42 42 41 40 38 37 36 35 34 34 35 36 35 35 35 34 34 35 36 36 35 35 34 34 34 33 33 34 35 35 35 35 34 33 33 33 33 33 33 33 32 32 31 31 30 29 28 27 26 24 22 19 15 14 15 17 18 19 20 21 23 25 24 21 21 21 23 25 27 31 33 33 33 31 30 32 33 32 34 32 30 35 40 42
42 41 40 39 38 37 36 35 34 33 33 34 34 34 34 34 34 34 35 35 35 35 34 34 34 34 33 33 34 34 34 34 34 33 32 32 32 32 32 32 32 32 32 31 30 29 28 27 25 24 23 20 16 13 13 15 16 17 17 19 23 26 26 24 23 23 22 23 26 29 33 34 31 30 28 27 29 29 29 29 27 26 31 35 37
39 38 37 36 36 35 34 33 32 32 32 32 32 31 31 31 31 32 33 33 33 33 33 33 33 33 32 32 32 33 33 33 33 33 32 31 31 31 30 31 32 32 31 30 29 28 26 25 24 22 20 17 13 13 13 14 15 15 16 20 25 27 25 23 24 24 22 23 27 31 34 33 30 27 25 23 24 25 25 27 25 25 29 32 33
35 34 34 34 34 33 32 31 31 30 30 29 27 27 28 28 30 31 31 31 31 31 32 33 32 32 31 31 30 31 31 30 30 30 29 29 29 28 28 30 31 31 30 28 26 26 25 24 22 19 16 14 12 12 13 14 15 15 16 20 25 25 24 24 24 23 23 25 28 30 31 29 26 25 24 23 23 23 25 27 26 25 27 29 30
32 31 32 32 32 32 31 30 28 27 26 24 25 26 27 28 29 29 29 29 30 30 31 31 31 30 30 29 29 29 29 27 26 25 25 24 24 25 26 27 27 27 26 24 23 24 23 21 18 15 13 12 12 12 13 14 15 16 17 19 21 23 23 23 22 23 24 26 27 28 27 25 25 25 26 26 25 22 20 22 22 22 23 26 27
29 29 30 31 31 30 30 28 26 25 25 25 26 27 27 27 28 28 28 29 30 30 29 30 30 30 29 29 29 28 26 25 25 24 23 22 22 22 23 23 23 23 23 22 22 22 20 17 14 12 12 12 12 12 13 14 16 17 17 16 19 22 21 20 21 24 25 25 25 25 24 24 26 27 28 29 28 25 24 23 22 23 26 28 29
27 28 29 29 28 27 27 25 24 24 25 25 26 26 26 27 28 28 29 29 30 30 29 29 30 30 30 30 29 27 25 24 24 23 22 21 21 21 21 20 20 20 21 21 20 18 17 15 13 12 13 13 13 13 14 15 16 17 15 14 16 18 17 18 22 25 23 22 21 22 23 25 27 28 28 28 28 28 29 30 29 30 32 32 33
26 26 26 26 25 24 23 22 23 23 24 24 25 26 27 28 29 29 29 29 30 31 30 30 31 31 31 31 29 26 24 23 23 22 21 20 20 20 20 19 19 20 21 20 17 16 16 15 14 13 13 14 14 14 15 16 16 15 14 13 14 15 15 19 22 21 18 17 19 21 23 25 25 26 27 27 28 29 29 30 31 32 33 34 35
24 24 24 23 22 22 21 21 21 22 23 23 24 25 27 28 29 30 30 30 31 32 31 31 31 31 30 29 28 26 24 23 22 21 19 19 19 19 19 19 19 20 20 18 17 17 17 16 14 14 14 15 15 16 16 16 15 15 14 14 16 15 13 14 15 14 14 16 19 21 22 23 23 24 26 27 28 30 30 30 31 33 35 37 38
23 22 22 21 21 21 21 21 22 22 22 23 24 24 25 27 29 29 30 31 32 32 31 31 31 31 30 28 27 25 24 23 23 21 20 19 19 19 19 19 19 19 19 19 18 17 17 16 15 16 16 16 17 17 17 16 15 15 15 16 17 16 11 9 10 13 16 18 19 20 20 21 22 23 25 26 27 28 30 31 32 34 36 38 39
23 22 21 21 21 22 23 23 23 23 24 25 26 26 27 28 29 30 30 32 32 32 32 32 32 31 30 27 25 24 24 24 23 22 21 19 18 19 19 19 19 20 20 20 19 18 17 17 17 18 18 19 19 19 18 17 17 17 18 18 16 13 10 7 8 13 16 17 17 17 18 20 22 22 23 24 26 28 30 31 32 33 34 35 34
23 22 21 21 22 23 24 25 25 26 26 27 28 28 29 30 31 31 30 31 31 32 31 31 30 29 27 24 22 23 24 24 23 21 19 18 17 18 18 19 19 20 20 19 18 18 19 19 20 21 21 21 21 21 20 19 20 20 19 17 13 10 8 7 7 9 12 13 14 15 17 18 19 20 21 22 24 26 28 29 29 29 27 26 25
22 21 21 21 22 22 23 24 25 26 27 27 28 29 30 31 32 32 31 31 31 31 30 30 28 26 25 23 22 21 22 21 18 16 15 15 16 17 18 18 18 18 18 17 17 19 21 22 23 23 23 23 23 23 22 22 21 19 16 12 10 8 7 6 7 8 10 11 13 14 14 15 16 18 19 20 21 23 24 23 22 21 20 20 23
22 22 22 22 22 22 22 23 24 24 25 26 27 28 29 30 31 32 32 31 31 30 30 29 27 25 24 22 20 19 19 17 14 14 15 17 18 19 19 19 18 18 18 18 19 20 21 23 24 24 23 24 24 24 23 20 17 14 12 9 8 6 6 7 7 8 9 10 11 11 12 13 14 15 16 15 15 16 17 16 16 17 19 21 24
22 22 23 22 22 22 23 23 24 24 24 25 26 26 26 28 29 30 31 31 30 29 29 27 25 24 23 21 19 19 19 18 17 17 18 19 20 20 21 21 21 21 22 22 23 24 24 24 25 24 23 23 23 21 18 15 13 12 9 8 7 7 7 6 7 8 8 8 8 9 10 11 12 11 11 11 10 11 12 15 16 18 21 23 25
20 21 21 21 21 21 21 21 21 22 23 25 25 25 25 26 27 28 29 28 28 27 27 26 24 24 23 22 21 20 19 19 19 19 19 20 21 22 22 22 23 23 23 24 24 25 25 25 24 23 22 22 20 18 16 14 13 10 9 9 9 8 7 7 7 8 7 7 7 8 8 8 9 8 8 8 9 10 11 13 15 17 20 22 24
17 18 18 18 17 18 18 18 18 18 20 21 22 23 24 24 25 25 26 26 25 24 24 24 23 23 23 22 22 22 20 19 19 20 21 22 22 22 22 23 23 24 24 25 25 24 24 23 22 22 21 19 18 17 15 13 12 11 10 10 9 7 7 7 7 6 5 5 6 6 6 6 6 6 6 6 8 9 11 13 15 17 19 21 23
15 15 15 15 15 15 15 16 16 16 16 17 18 19 19 20 20 20 21 22 22 22 22 22 22 22 22 22 23 23 21 20 20 21 21 22 22 23 23 23 24 25 24 24 24 23 23 22 21 20 19 18 17 15 13 12 12 12 10 9 8 7 7 6 4 4 4 4 4 4 4 3 4 4 5 7 9 11 12 15 17 18 19 21 22
12 12 12 12 12 13 14 14 15 15 14 14 15 15 16 16 17 17 17 17 17 17 18 19 19 20 20 21 22 22 22 21 21 20 20 21 22 23 23 24 25 25 24 23 21 20 20 20 19 18 18 16 14 12 12 12 12 11 9 8 7 7 5 4 4 4 4 3 2 2 1 2 3 4 6 8 10 12 14 16 17 18 20 21 22
11 10 9 8 9 11 12 13 14 14 14 13 13 13 14 14 15 14 14 15 14 15 15 15 16 17 19 20 21 22 22 21 21 20 20 20 21 23 24 24 24 23 23 22 21 19 18 18 17 17 15 14 13 13 13 13 12 10 9 8 7 6 5 5 4 4 2 1 2 2 3 4 4 6 8 9 10 12 15 16 17 19 19 19 21
11 10 8 7 7 7 9 11 13 13 13 13 13 12 12 13 13 13 13 13 13 13 13 13 14 15 17 19 21 21 21 21 20 20 21 21 21 22 23 23 22 22 22 22 21 19 18 16 14 14 14 15 15 15 14 13 12 10 9 7 7 6 6 5 5 4 4 5 5 5 6 6 6 8 10 11 12 13 15 16 17 18 19 19 21
9 8 7 6 6 6 5 7 10 12 13 12 12 12 12 12 11 11 12 11 11 11 12 12 13 14 15 18 20 21 22 22 21 21 23 23 22 22 21 20 22 23 23 21 18 16 15 15 15 15 16 16 15 15 14 13 11 10 9 8 8 7 7 7 8 8 8 8 7 7 8 8 9 10 11 12 13 13 15 16 17 18 19 20 20
4 5 5 5 4 4 4 4 6 9 11 12 11 12 12 12 11 11 11 10 10 11 12 13 14 15 16 18 19 21 23 22 22 23 23 23 22 22 21 19 18 18 17 16 14 14 15 16 17 17 16 16 15 14 13 12 11 10 9 9 8 9 9 11 11 10 9 8 8 7 8 8 9 9 10 11 12 12 13 14 15 17 18 19 19
1 1 1 3 3 2 2 2 3 4 7 9 10 10 11 11 11 11 10 10 11 12 13 14 16 17 19 20 20 22 23 23 24 26 26 24 21 20 19 17 15 14 13 14 15 16 17 17 17 17 17 16 15 14 12 11 10 10 10 10 10 11 12 13 12 10 9 7 7 6 6 6 6 7 7 8 8 9 10 11 12 14 15 16 17
5 5 4 2 2 1 0 0 1 2 2 4 6 8 10 11 11 11 11 11 12 14 15 16 18 20 22 22 23 23 24 25 26 26 24 22 20 19 17 16 16 16 16 17 18 18 18 18 19 18 18 16 15 13 12 12 11 11 11 12 13 14 14 13 11 9 8 6 5 4 3 3 4 4 4 5 6 7 8 10 11 12 13 13 14
7 8 8 6 4 2 1 1 1 1 1 0 2 5 7 9 11 11 12 13 15 17 18 19 21 23 24 25 24 23 23 23 23 23 21 20 20 21 22 21 21 21 20 20 21 20 20 21 20 19 18 16 15 14 13 12 12 13 14 14 15 15 14 12 11 9 7 5 4 3 1 1 2 3 3 4 5 6 7 8 9 10 10 11 10
8 9 10 9 8 5 3 1 0 1 1 1 2 3 4 6 8 10 12 14 16 19 20 21 22 23 22 22 22 21 20 18 18 19 20 21 22 24 25 25 24 23 23 23 23 22 21 21 19 18 17 15 14 13 13 13 14 15 16 16 16 15 14 12 10 8 7 5 4 3 2 3 3 4 5 5 6 6 6 7 8 8 9 9 9
8 8 9 11 10 7 4 3 3 2 1 0 1 1 2 4 6 9 12 14 17 20 21 21 21 22 20 18 17 18 18 17 17 19 21 24 26 27 27 25 23 22 23 23 24 23 21 19 17 16 15 14 14 13 13 14 15 17 18 17 17 16 14 13 11 9 8 6 5 5 5 5 5 6 6 7 7 7 7 7 8 7 7 8 7
9 8 9 12 12 10 7 6 5 4 2 1 0 1 3 5 7 9 12 15 17 18 19 19 19 21 21 19 19 20 21 22 23 25 26 28 28 27 25 24 23 23 23 22 21 20 18 16 15 14 14 14 14 14 14 15 16 17 18 18 17 16 15 14 13 11 10 9 8 8 7 7 8 8 8 8 8 7 7 6 7 7 7 6 6
9 8 9 13 14 13 11 9 6 4 3 2 1 3 5 8 10 12 14 16 18 20 22 23 23 24 24 24 24 25 26 27 27 27 27 28 27 26 24 24 23 23 22 20 18 17 15 14 13 12 13 13 13 14 14 15 16 17 17 17 17 16 16 15 14 13 12 12 11 11 10 10 10 10 10 9 9 8 7 6 6 6 6 5 5
9 8 10 13 14 14 13 10 7 6 5 5 6 8 10 13 15 17 19 20 22 23 24 24 25 27 28 27 26 26 27 28 28 28 28 27 26 24 23 23 22 21 19 18 17 15 14 13 12 11 12 12 12 13 14 14 15 16 16 16 17 17 16 16 16 15 15 14 14 13 13 13 12 11 10 9 8 8 7 6 6 6 6 6 6
9 9 10 12 14 14 14 12 10 9 8 9 10 13 15 18 20 23 25 26 26 27 27 27 28 27 26 25 24 25 26 26 26 26 26 25 24 23 22 21 21 20 18 17 15 14 13 11 10 10 10 10 11 12 13 14 15 15 16 16 17 17 17 17 17 17 17 17 16 16 16 15 14 13 11 10 9 8 7 6 5 6 6 7 7
10 10 11 12 14 15 15 14 13 11 11 12 13 15 18 21 24 27 30 31 31 31 30 28 27 25 23 23 24 25 25 24 23 22 22 22 22 21 21 20 19 18 16 15 14 12 11 9 8 7 7 7 7 8 9 11 13 14 16 17 17 18 18 18 18 18 19 18 18 17 17 16 15 14 13 12 11 9 8 7 6 6 6 7 8
12 12 12 14 15 16 16 16 15 15 15 15 16 18 21 24 26 28 29 28 28 27 25 24 23 24 24 24 23 23 22 21 20 19 19 19 19 18 17 16 15 14 13 12 10 9 8 6 5 5 5 5 6 7 8 10 11 12 14 15 16 17 18 18 19 19 19 18 18 17 16 15 15 14 14 14 13 12 11 9 8 8 7 7 7
12 13 14 14 16 17 17 17 17 18 18 19 20 22 24 26 27 27 26 24 23 22 23 23 23 23 23 22 21 20 20 19 17 16 15 15 15 15 14 13 13 12 11 9 8 7 6 5 5 5 5 6 7 8 9 10 11 12 13 14 15 16 17 18 18 19 19 18 17 17 16 16 15 14 14 14 14 14 13 13 12 12 11 10 10
Wind_Direction
225 225 225 227 228 229 229 229 229 230 231 231 231 232 233 233 233 234 235 235 236 237 238 237 237 238 238 239 238 239 239 237 237 237 238 239 240 243 247 250 252 254 256 256 258 261 262 262 263 264 266 269 270 271 271 272 273 272 273 274 274 274 276 276 280 288 296 297 295 294 292 291 289 288 289 289 287 286 286 285 286 286 285 285 284
225 225 224 226 227 228 229 229 230 230 231 232 232 232 233 232 232 232 233 234 235 236 237 237 238 238 238 238 237 238 238 237 238 237 237 239 242 244 247 250 254 256 256 256 258 260 262 264 264 265 266 267 269 271 272 272 274 275 276 277 279 280 281 280 282 287 292 295 295 294 293 292 291 290 290 290 289 287 286 285 285 286 285 285 284
226 225 224 224 225 226 228 229 229 229 230 232 232 232 233 232 232 232 231 232 233 234 235 236 237 238 239 239 238 239 239 238 237 237 238 239 242 244 246 249 253 255 256 257 258 259 261 263 265 266 267 267 268 269 271 271 272 275 277 279 280 282 283 284 284 287 291 294 295 296 296 296 295 294 292 291 290 289 287 286 286 286 284 284 284
225 225 224 223 224 225 226 227 228 229 229 231 231 232 233 233 233 233 232 233 233 234 234 235 237 238 240 240 239 238 238 237 236 236 237 239 241 243 245 248 251 254 255 257 258 259 260 261 263 265 266 267 268 268 269 271 273 275 277 279 280 281 283 284 284 286 289 291 292 294 295 295 295 295 294 293 292 291 290 289 288 288 288 288 288
224 225 224 224 224 225 225 226 228 228 228 230 230 231 232 234 234 233 234 235 234 235 235 236 238 240 241 242 240 238 236 235 235 234 235 237 239 242 246 248 250 252 254 256 257 258 259 260 261 263 264 265 267 269 270 272 274 275 276 278 280 281 283 284 285 286 286 287 289 291 292 292 292 293 294 295 296 294 293 291 291 292 292 292 293
223 224 224 224 225 226 226 226 226 226 227 228 229 230 231 233 234 233 234 235 235 236 236 237 239 241 242 242 241 238 236 235 235 235 236 238 240 243 246 248 249 251 253 254 256 257 258 260 262 263 263 264 266 268 270 272 273 275 275 277 280 282 283 285 286 286 286 287 289 290 291 291 292 292 293 295 297 296 295 294 294 293 293 294 294
223 223 223 224 225 226 226 226 226 226 226 227 228 229 230 232 233 232 232 234 235 236 237 238 240 242 243 243 241 239 237 236 236 236 237 239 241 243 244 246 248 250 252 254 255 258 259 261 264 265 265 265 266 268 270 272 274 276 277 277 278 280 283 284 285 286 286 287 287 288 290 291 292 292 293 294 294 293 294 296 296 294 294 295 295
222 223 222 223 225 226 226 226 226 227 227 227 227 228 229 231 231 231 231 232 233 235 237 238 240 242 243 243 242 240 238 237 237 237 237 238 240 242 244 246 249 251 253 255 256 259 261 264 266 266 266 266 267 269 271 274 276 277 278 278 279 280 282 285 286 286 286 287 287 288 290 291 292 292 293 293 292 292 295 297 296 296 298 298 297
222 222 222 223 224 224 225 225 226 227 228 227 227 228 228 229 231 231 231 231 232 234 235 237 239 240 241 242 242 242 240 238 237 236 237 238 240 243 245 248 251 254 256 258 258 260 261 264 266 267 268 268 269 270 271 273 276 278 279 280 281 282 283 286 287 287 287 288 289 290 291 291 290 290 290 291 292 293 296 298 299 301 303 300 296
222 222 222 223 224 224 224 225 225 227 227 227 227 228 228 229 230 231 232 232 232 233 234 236 237 238 239 241 242 242 241 239 237 237 238 239 242 245 248 250 253 255 257 259 259 260 261 263 265 266 268 269 269 270 271 273 274 275 277 280 281 284 285 286 286 285 286 288 289 290 290 288 287 288 289 290 292 295 299 302 304 305 305 300 297
221 221 222 223 224 224 224 225 226 227 227 228 228 228 228 229 230 231 231 232 232 233 234 235 236 237 238 240 241 242 242 240 239 238 239 241 244 247 250 252 254 256 257 258 259 261 262 264 265 266 267 268 269 270 271 271 272 272 274 276 279 282 283 283 283 284 286 288 288 288 286 285 287 288 289 293 298 302 304 306 307 306 304 301 300
220 221 222 224 224 223 224 225 226 226 227 228 229 229 230 231 231 231 231 232 233 234 235 236 236 236 237 239 240 242 242 242 241 241 242 243 245 247 250 253 255 256 257 258 260 261 263 264 266 267 268 268 270 271 270 269 269 270 272 274 274 274 275 276 278 281 284 286 286 284 283 285 286 288 292 301 306 307 306 307 307 304 300 299 298
219 220 222 224 223 223 223 224 225 226 228 228 229 230 231 232 233 233 233 234 235 236 237 237 236 237 238 239 240 241 243 243 242 242 243 244 245 247 250 253 255 256 257 259 260 262 263 264 266 267 268 269 270 270 270 269 268 268 269 270 269 268 268 269 272 275 278 279 279 279 281 284 287 291 299 306 307 305 304 305 305 301 298 298 296
218 219 221 222 223 223 223 224 226 227 228 229 230 231 233 234 234 235 236 237 238 238 239 239 239 238 239 240 241 242 243 244 243 243 243 244 245 247 249 252 254 256 257 258 260 261 263 264 264 266 267 268 268 268 268 269 269 269 269 268 266 266 265 264 266 268 270 273 276 279 281 285 288 293 301 304 303 303 303 304 302 299 298 298 297
217 218 220 221 222 223 223 224 225 227 228 230 231 233 234 235 236 237 238 239 240 241 241 242 242 242 241 241 243 243 243 243 243 243 243 244 246 247 249 251 253 255 256 257 258 259 261 263 264 265 266 267 268 267 267 268 269 269 271 271 271 269 266 263 263 266 269 274 278 280 282 284 287 294 301 303 302 303 304 301 299 298 299 299 298
217 218 219 221 222 223 223 224 225 227 228 230 232 233 235 235 236 236 238 240 241 242 243 244 245 245 244 244 245 245 244 243 244 244 244 245 247 249 250 252 253 254 255 256 257 258 259 261 263 264 266 267 268 267 267 268 268 269 271 274 277 277 275 272 269 270 274 276 276 277 279 281 287 298 307 307 302 302 303 299 298 301 302 300 298
217 219 220 221 222 223 224 225 226 227 228 230 231 233 234 235 235 236 238 239 241 242 243 244 246 246 246 246 247 247 245 244 244 244 244 245 247 249 251 252 254 254 255 255 256 257 258 259 261 264 265 266 267 267 265 265 267 270 272 276 281 281 279 280 280 280 280 279 279 279 280 285 294 303 310 310 306 304 302 299 302 305 300 297 296
217 220 220 221 222 223 224 225 226 228 229 230 232 233 234 236 237 238 240 241 243 244 246 247 248 248 248 248 248 248 248 247 246 245 245 246 247 249 251 253 255 255 255 255 255 256 256 256 258 260 262 264 265 263 261 263 266 269 272 278 283 280 278 284 290 290 287 285 284 283 286 295 304 307 309 312 310 307 302 300 305 305 298 294 295
218 220 221 222 223 224 225 226 227 229 230 232 234 235 236 238 238 240 241 242 244 246 247 249 249 249 249 249 249 249 250 249 248 246 246 247 248 250 251 253 253 253 254 254 255 255 254 254 254 257 259 260 259 257 260 264 266 268 271 275 277 277 280 288 292 291 288 283 282 286 295 305 312 311 312 315 313 308 304 303 302 296 291 289 289
218 220 221 222 224 225 226 227 228 230 232 233 235 236 237 238 238 240 241 242 243 244 245 247 248 248 248 248 248 248 249 250 249 247 246 246 247 248 249 249 250 251 253 254 254 255 254 253 254 254 253 252 250 253 260 263 265 265 264 266 270 274 280 285 287 286 283 279 281 290 300 308 312 313 315 316 313 308 305 303 301 295 290 287 286
217 219 220 222 224 225 226 228 229 230 231 231 232 234 235 236 238 239 240 241 242 243 244 246 247 248 249 248 248 248 248 248 248 247 245 244 244 245 246 246 248 251 254 254 254 255 255 255 254 250 244 241 240 245 253 257 259 259 256 257 263 270 277 281 281 278 276 277 285 294 301 307 312 314 315 314 312 306 300 300 300 299 296 292 290
216 218 220 222 224 226 227 228 229 229 230 231 232 234 235 236 238 240 240 241 243 244 245 247 248 249 250 250 250 249 249 250 249 248 246 244 243 244 244 245 247 251 254 253 252 253 255 254 250 242 238 237 234 235 242 248 251 254 254 253 257 267 276 280 276 276 279 287 295 302 307 311 312 312 312 313 313 311 309 308 304 299 298 296 294
215 217 219 222 224 226 228 229 229 230 232 233 234 236 237 238 239 241 242 243 244 246 247 249 250 251 252 253 253 253 252 252 251 250 248 246 244 243 244 244 246 249 252 252 251 253 254 252 245 238 237 238 235 233 238 244 248 252 254 254 259 267 273 273 274 281 290 297 302 305 307 309 309 309 311 312 312 312 311 310 308 305 303 303 302
212 216 218 220 223 225 226 228 229 231 233 235 236 238 239 241 242 243 245 245 246 247 249 250 251 252 253 255 256 256 255 255 254 252 250 248 245 244 242 242 243 246 249 250 249 250 250 247 242 238 236 239 240 239 242 246 249 252 257 264 268 265 259 263 275 287 294 296 299 302 304 306 307 308 309 308 308 309 308 308 309 309 308 308 308
206 210 213 215 217 219 221 223 226 229 232 235 237 239 241 243 244 245 247 247 247 248 250 252 253 254 255 257 258 259 258 257 256 254 251 248 246 244 241 240 240 243 247 248 245 244 245 244 241 239 239 242 246 247 249 251 254 258 265 274 277 271 260 259 272 284 290 294 299 302 303 305 305 306 307 308 309 310 311 311 311 311 312 312 313
199 202 207 210 212 214 218 220 223 226 230 234 237 238 241 244 246 247 248 248 249 249 250 251 252 254 255 256 258 259 259 257 256 254 250 247 246 244 241 238 237 238 241 242 240 239 239 238 239 240 242 246 249 252 254 257 261 266 270 276 282 282 273 261 271 286 293 297 299 301 302 303 303 304 306 308 310 309 310 311 312 314 316 317 317
193 196 202 208 212 216 219 221 224 226 229 233 236 238 240 243 245 247 247 248 249 250 250 251 252 253 254 255 257 258 259 257 256 253 248 244 242 240 238 235 233 233 234 235 234 234 234 234 236 240 244 247 251 253 256 260 263 267 272 277 279 272 259 252 269 284 290 292 294 295 296 297 299 302 303 304 306 308 310 314 316 318 320 320 323
194 195 199 203 208 215 219 222 226 228 230 233 235 237 238 240 241 242 242 244 246 247 248 250 251 251 253 254 254 255 256 255 253 250 246 242 239 236 233 230 229 230 231 231 231 232 234 235 238 241 245 248 252 254 256 260 264 268 271 272 263 247 239 245 257 266 275 281 282 282 285 288 290 293 297 302 307 311 314 317 319 321 326 331 340
193 196 198 201 204 208 213 218 222 225 229 231 233 235 236 238 239 241 241 242 244 247 249 251 252 252 254 254 253 253 253 252 248 242 238 234 231 229 226 223 222 223 224 225 227 231 235 239 242 244 247 250 253 255 257 260 264 265 262 252 239 230 231 234 239 252 263 267 268 270 274 279 284 291 299 307 313 315 316 319 323 332 344 355 3
187 192 195 198 202 204 207 212 215 217 221 225 228 231 234 236 238 240 242 242 243 246 248 249 250 251 252 250 247 246 246 243 233 225 223 221 218 218 216 213 213 212 212 214 219 224 230 236 240 243 245 248 250 252 254 255 252 244 235 229 228 228 226 226 237 251 255 253 256 263 271 280 290 299 307 315 319 318 321 332 344 353 2 10 13
189 193 196 200 203 205 208 212 215 216 219 222 225 228 231 235 238 241 243 244 243 245 246 246 247 247 246 244 241 237 235 230 222 217 217 215 214 214 212 210 210 210 210 212 216 219 223 228 234 237 239 242 244 244 241 234 225 218 216 217 216 216 221 232 240 240 238 242 254 267 278 288 297 305 312 318 324 330 339 350 358 3 8 15 17
195 196 198 201 203 205 209 213 216 219 221 223 225 226 228 232 235 238 242 244 244 244 244 243 242 241 239 238 236 232 229 225 219 215 214 215 216 216 214 213 212 212 212 213 216 219 222 225 228 231 233 234 234 229 219 210 205 203 202 204 208 211 218 226 227 227 235 251 265 275 287 298 305 311 315 323 337 350 357 1 6 11 17 21 21
190 193 195 197 199 202 206 210 213 217 220 222 224 225 226 229 232 235 238 241 241 241 240 239 238 236 234 233 232 229 226 221 216 215 215 216 218 218 217 215 213 211 211 213 216 219 221 222 224 227 228 226 220 212 206 199 193 192 195 201 208 213 217 222 228 238 257 269 276 289 303 313 321 328 336 349 5 13 18 21 22 23 25 25 22
175 180 183 188 193 196 200 204 207 210 214 217 219 221 223 225 226 228 231 233 234 235 234 233 233 232 230 229 227 225 221 215 213 215 217 219 220 218 216 214 212 211 211 214 217 219 219 220 222 222 218 214 208 202 196 189 187 191 197 202 207 212 216 226 242 260 271 279 288 307 324 337 353 6 15 25 31 34 34 33 30 28 27 25 19
153 162 170 179 187 191 195 198 201 203 207 210 213 214 214 215 216 217 219 222 226 227 228 228 229 229 227 224 222 220 216 212 212 216 221 224 224 220 216 215 214 213 212 213 216 219 219 217 213 209 206 204 200 192 186 186 189 192 195 198 203 208 216 231 246 252 260 274 298 336 28 54 56 55 49 45 43 40 35 33 30 27 25 21 15
119 128 143 162 178 190 197 198 199 201 204 206 208 209 209 208 208 209 211 214 216 218 219 221 224 226 224 220 217 216 214 213 215 219 225 229 229 225 221 219 218 216 213 212 211 209 209 207 204 200 198 193 186 182 184 186 188 189 191 195 198 202 212 222 225 226 216 162 115 100 101 97 83 75 67 57 50 43 36 33 31 27 25 20 14
107 110 117 129 146 168 189 199 202 203 205 208 210 211 210 207 205 205 208 210 212 214 214 216 220 223 222 219 215 213 214 216 218 221 225 227 229 228 224 221 220 217 211 208 204 198 196 196 192 185 181 178 177 180 182 183 185 187 188 192 195 200 208 205 188 165 140 124 115 108 105 97 85 78 70 60 52 47 43 40 36 31 29 25 19
107 108 107 110 117 124 144 178 196 200 203 208 213 216 217 216 213 212 213 212 214 217 218 219 221 221 221 220 218 216 217 218 219 223 224 221 220 220 216 215 216 210 198 192 191 187 181 176 171 170 173 175 176 178 178 179 183 186 186 189 193 193 187 171 155 143 133 125 118 109 102 92 80 73 67 60 57 54 50 47 44 38 34 30 24
101 111 112 108 105 104 109 133 168 188 195 201 209 216 221 225 227 226 225 223 223 226 227 228 228 227 224 222 222 221 219 217 218 219 213 205 204 205 200 196 199 194 178 167 166 166 166 166 167 170 174 175 175 175 177 180 183 185 185 187 184 176 165 156 149 144 138 132 124 113 101 89 79 72 66 61 60 57 52 49 45 41 37 33 28
332 273 159 125 112 100 95 108 127 160 183 194 203 210 218 225 230 234 237 237 234 234 234 235 234 232 227 222 220 217 213 211 212 207 194 181 177 181 180 176 177 173 164 161 163 166 169 173 173 173 173 172 172 174 177 180 183 185 184 179 171 165 161 157 153 151 147 139 129 118 104 90 78 69 62 58 55 48 41 36 31 30 31 31 30
278 280 272 235 173 136 54 62 108 117 146 181 202 210 214 219 224 230 236 239 237 237 237 236 235 232 224 217 215 215 212 208 206 199 183 168 160 160 161 165 169 168 168 169 169 169 173 175 173 170 170 171 172 175 178 181 184 183 178 171 165 163 163 161 160 160 157 150 141 132 113 89 71 58 47 40 33 21 16 14 13 14 18 22 26
264 270 273 265 242 221 249 331 55 86 91 132 234 230 222 218 221 230 237 240 241 240 238 236 233 225 213 204 203 207 207 201 193 182 170 162 159 157 158 161 162 162 164 166 166 168 171 171 169 169 170 172 174 178 181 184 183 179 174 169 167 167 168 169 171 172 171 170 171 169 153 29 17 16 7 3 1 358 356 360 2 1 2 7 15
257 260 263 261 254 247 250 271 297 100 88 359 298 265 238 223 224 234 242 246 244 237 232 230 226 215 200 189 187 187 184 179 173 165 160 159 158 158 158 158 159 160 163 165 166 167 169 168 168 170 172 175 178 182 185 186 184 180 177 175 174 175 178 179 181 185 189 196 209 227 264 295 311 324 325 326 331 335 335 341 349 351 351 354 360
257 259 260 257 252 247 241 237 222 190 169 240 288 269 245 237 240 242 243 243 238 229 223 221 215 201 183 171 169 169 166 164 163 162 163 163 162 161 160 160 163 167 170 169 168 167 166 167 169 171 174 178 182 186 190 191 188 185 184 182 183 185 187 189 193 198 204 214 228 243 260 274 283 293 301 303 307 313 319 325 331 334 338 345 347
254 260 265 262 254 243 229 224 216 197 175 161 323 272 241 234 235 233 227 223 219 210 198 190 184 177 168 162 161 162 165 168 169 167 166 166 165 163 162 163 166 170 170 169 168 166 166 168 170 173 178 184 188 191 193 194 194 193 193 193 194 197 199 202 207 211 217 228 239 248 259 271 277 283 287 291 295 300 305 311 317 321 327 334 333
244 250 263 267 260 248 237 229 215 189 163 157 196 226 223 214 207 205 202 198 192 183 173 165 160 158 159 161 163 164 165 167 167 165 164 165 165 164 162 164 167 169 168 167 167 167 168 171 175 179 185 190 194 198 199 200 200 202 203 205 208 210 212 215 219 222 228 237 244 251 260 271 278 282 284 285 288 291 293 296 303 308 312 315 312
238 241 258 265 260 251 242 233 218 194 179 180 190 198 199 195 187 182 180 179 176 170 164 159 156 155 155 157 159 160 160 161 161 162 163 165 165 164 163 165 167 169 170 171 172 173 176 181 185 190 194 199 203 207 210 211 212 212 213 216 219 221 223 226 230 233 238 245 250 256 263 269 274 279 281 281 282 285 288 292 297 302 306 309 307
234 233 245 251 247 240 233 225 215 203 192 191 193 190 186 182 177 170 166 165 165 162 159 156 156 156 157 157 156 156 156 157 158 160 162 164 165 165 165 168 170 172 174 175 177 179 182 187 191 196 201 206 210 214 219 222 225 227 228 230 231 232 234 236 239 242 246 250 255 260 264 267 268 269 271 272 273 274 275 280 288 297 303 307 307
235 224 224 226 225 223 219 213 206 200 195 195 195 189 182 178 174 167 161 158 156 155 155 155 155 156 158 159 160 159 157 155 155 156 158 160 163 164 166 169 172 173 175 175 176 178 181 185 191 197 206 214 220 225 229 233 235 237 240 241 242 243 244 245 247 249 252 254 257 259 261 263 265 265 264 265 266 266 268 274 282 291 299 303 305
222 210 204 204 205 206 206 203 197 190 186 184 183 180 177 173 168 162 157 153 149 147 148 151 153 154 155 156 159 160 159 157 156 155 154 155 157 159 162 165 168 171 172 172 172 175 181 187 197 206 215 226 234 238 239 240 242 244 246 247 249 251 252 252 253 254 255 256 257 256 256 258 258 259 259 260 261 261 264 268 273 280 289 294 292
187 184 182 184 186 187 190 188 180 171 165 162 160 159 158 157 155 154 156 157 155 154 155 156 156 156 155 155 157 160 161 160 159 159 158 157 156 157 160 165 168 171 173 174 177 186 194 203 215 226 235 243 248 249 248 246 246 247 249 250 251 253 255 256 257 257 257 257 256 254 253 252 252 253 255 258 259 261 262 265 269 274 280 285 286
Height
1518 1522 1525 1529 1532 1535 1538 1541 1544 1546 1548 1550 1552 1555 1557 1559 1562 1564 1566 1569 1571 1573 1574 1576 1578 1579 1581 1582 1583 1585 1586 1587 1588 1589 1590 1591 1592 1593 1594 1595 1596 1596 1597 1598 1599 1600 1601 1602 1603 1603 1604 1604 1604 1605 1605 1606 1606 1606 1606 1606 1606 1606 1607 1607 1605 1603 1602 1604 1604 1604 1604 1604 1603 1603 1603 1602 1602 1601 1600 1599 1598 1597 1596 1595 1594
1514 1518 1522 1525 1528 1532 1535 1538 1541 1543 1545 1548 1550 1552 1554 1556 1559 1561 1563 1566 1568 1570 1572 1573 1575 1577 1578 1579 1581 1582 1583 1584 1586 1586 1588 1589 1590 1591 1592 1593 1594 1594 1595 1596 1597 1599 1599 1600 1601 1601 1602 1602 1603 1603 1604 1604 1605 1605 1605 1605 1604 1605 1605 1605 1604 1602 1600 1601 1601 1601 1601 1601 1601 1600 1600 1600 1599 1598 1597 1596 1595 1594 1593 1592 1592
1510 1514 1518 1521 1525 1529 1532 1535 1538 1540 1542 1545 1547 1549 1551 1553 1556 1558 1560 1563 1565 1567 1569 1571 1572 1574 1575 1577 1578 1579 1581 1582 1583 1584 1585 1587 1588 1589 1590 1591 1591 1592 1593 1594 1595 1597 1597 1598 1599 1600 1600 1600 1601 1601 1602 1603 1603 1603 1603 1603 1603 1603 1603 1603 1602 1601 1599 1598 1598 1598 1598 1598 1597 1597 1597 1596 1595 1594 1593 1592 1591 1590 1589 1588 1588
1507 1510 1514 1518 1522 1525 1528 1531 1534 1537 1539 1541 1544 1546 1548 1550 1552 1555 1557 1560 1562 1564 1566 1568 1569 1571 1572 1574 1575 1577 1578 1579 1581 1582 1583 1584 1585 1587 1588 1588 1589 1590 1591 1592 1593 1594 1595 1596 1597 1598 1598 1598 1598 1599 1600 1600 1601 1602 1601 1601 1601 1601 1601 1600 1600 1599 1598 1595 1595 1595 1595 1595 1594 1594 1593 1592 1592 1591 1589 1588 1587 1586 1585 1584 1583
1503 1506 1510 1515 1518 1520 1524 1527 1530 1533 1535 1538 1540 1543 1545 1547 1549 1552 1554 1557 1558 1560 1563 1564 1566 1567 1569 1570 1572 1574 1575 1576 1578 1579 1580 1582 1583 1584 1585 1586 1587 1588 1589 1590 1591 1592 1593 1594 1595 1595 1596 1596 1596 1597 1598 1598 1599 1599 1599 1599 1599 1599 1598 1598 1598 1597 1596 1593 1592 1592 1592 1592 1591 1590 1590 1589 1588 1587 1585 1584 1583 1582 1581 1580 1578
1498 1502 1507 1510 1513 1516 1520 1523 1526 1529 1532 1534 1537 1540 1542 1544 1546 1549 1551 1553 1555 1557 1559 1561 1562 1564 1566 1567 1569 1571 1572 1573 1575 1576 1578 1579 1580 1582 1583 1584 1584 1585 1586 1587 1588 1589 1591 1591 1592 1593 1593 1594 1594 1595 1595 1596 1596 1597 1597 1596 1596 1596 1595 1595 1595 1594 1593 1591 1589 1588 1588 1588 1588 1587 1587 1586 1584 1582 1581 1580 1579 1578 1576 1575 1574
1493 1498 1502 1506 1509 1512 1515 1518 1522 1525 1528 1531 1534 1536 1539 1541 1543 1545 1548 1550 1552 1554 1555 1557 1559 1560 1562 1564 1566 1567 1569 1570 1572 1573 1575 1576 1577 1579 1580 1581 1582 1583 1583 1585 1586 1587 1588 1589 1590 1590 1591 1591 1592 1593 1593 1593 1593 1594 1594 1594 1594 1593 1592 1592 1592 1591 1590 1588 1586 1585 1584 1584 1584 1583 1583 1583 1581 1579 1578 1576 1573 1572 1572 1571 1569
1489 1493 1498 1501 1504 1507 1511 1515 1518 1521 1524 1527 1530 1533 1535 1538 1540 1542 1544 1546 1548 1550 1552 1554 1555 1557 1559 1560 1562 1564 1566 1567 1568 1569 1571 1573 1574 1575 1577 1578 1579 1580 1581 1582 1583 1584 1585 1586 1587 1587 1588 1589 1589 1590 1590 1591 1591 1591 1591 1591 1590 1590 1589 1589 1588 1587 1586 1584 1583 1582 1581 1580 1580 1579 1579 1578 1576 1575 1574 1572 1569 1567 1567 1566 1564
1484 1489 1493 1496 1499 1503 1507 1511 1514 1518 1521 1524 1527 1529 1532 1534 1536 1539 1540 1542 1545 1546 1548 1550 1552 1553 1555 1557 1558 1560 1561 1563 1564 1566 1568 1569 1571 1572 1573 1575 1576 1577 1578 1579 1580 1581 1582 1583 1584 1584 1585 1586 1586 1587 1587 1588 1587 1587 1587 1587 1586 1586 1586 1585 1584 1583 1581 1580 1579 1578 1578 1576 1575 1575 1575 1574 1572 1571 1570 1569 1566 1564 1563 1560 1558
1480 1485 1488 1491 1495 1499 1503 1507 1510 1513 1516 1519 1522 1525 1528 1530 1532 1534 1536 1539 1541 1543 1544 1546 1547 1549 1551 1553 1554 1556 1557 1559 1560 1562 1564 1566 1568 1569 1570 1571 1572 1574 1574 1575 1576 1578 1579 1580 1580 1581 1582 1582 1583 1584 1584 1584 1584 1584 1583 1583 1582 1582 1582 1581 1580 1579 1577 1576 1575 1574 1573 1571 1570 1571 1570 1570 1569 1568 1567 1566 1564 1562 1559 1554 1551
1476 1480 1483 1487 1492 1496 1500 1503 1506 1509 1512 1515 1518 1521 1524 1526 1528 1530 1532 1535 1537 1538 1540 1542 1544 1546 1547 1549 1550 1552 1553 1554 1556 1559 1561 1562 1564 1566 1566 1568 1569 1570 1571 1572 1573 1574 1575 1576 1577 1578 1579 1579 1580 1580 1580 1580 1580 1580 1579 1579 1579 1578 1578 1577 1576 1575 1574 1572 1571 1570 1568 1565 1565 1566 1566 1567 1567 1565 1564 1563 1561 1558 1555 1550 1546
1473 1477 1480 1483 1488 1492 1496 1499 1502 1505 1508 1511 1514 1517 1520 1522 1524 1526 1528 1531 1533 1534 1536 1538 1540 1542 1543 1544 1546 1547 1549 1550 1553 1555 1557 1559 1560 1562 1563 1564 1565 1566 1567 1568 1569 1570 1571 1573 1574 1574 1575 1576 1576 1577 1576 1576 1576 1575 1575 1574 1574 1574 1574 1573 1572 1572 1571 1569 1567 1565 1563 1561 1560 1561 1564 1565 1565 1562 1560 1560 1558 1555 1551 1548 1544
1469 1473 1476 1480 1484 1488 1492 1495 1498 1501 1504 1507 1511 1514 1516 1518 1520 1522 1525 1527 1529 1530 1532 1534 1536 1537 1539 1540 1542 1543 1544 1547 1549 1551 1553 1555 1557 1558 1559 1560 1561 1562 1563 1564 1565 1566 1568 1569 1570 1570 1571 1572 1572 1573 1573 1572 1572 1571 1571 1570 1570 1570 1570 1569 1569 1569 1568 1566 1563 1561 1560 1559 1557 1558 1562 1564 1562 1559 1556 1555 1555 1551 1547 1545 1541
1466 1470 1473 1477 1480 1484 1488 1491 1494 1498 1501 1504 1507 1509 1511 1513 1516 1519 1521 1523 1525 1526 1528 1530 1531 1533 1535 1536 1538 1539 1540 1542 1545 1547 1549 1551 1553 1554 1555 1556 1557 1558 1559 1560 1561 1562 1564 1565 1566 1567 1567 1568 1568 1569 1569 1568 1568 1567 1566 1565 1565 1565 1565 1565 1565 1565 1565 1563 1560 1558 1557 1556 1555 1557 1560 1562 1560 1557 1554 1551 1550 1546 1543 1541 1536
1464 1467 1471 1474 1477 1481 1484 1487 1491 1494 1497 1500 1503 1505 1507 1510 1512 1515 1517 1519 1521 1523 1525 1526 1527 1529 1531 1532 1533 1534 1536 1538 1541 1543 1545 1547 1549 1550 1551 1552 1553 1554 1555 1556 1557 1559 1560 1560 1561 1562 1563 1563 1564 1565 1565 1565 1564 1563 1562 1561 1561 1561 1560 1560 1561 1562 1561 1560 1558 1556 1554 1553 1553 1555 1558 1559 1557 1555 1551 1547 1546 1543 1538 1536 1531
1461 1465 1468 1471 1474 1477 1480 1484 1487 1491 1494 1497 1499 1501 1503 1506 1509 1511 1513 1515 1517 1519 1521 1522 1524 1525 1527 1529 1529 1530 1532 1534 1536 1538 1541 1543 1544 1545 1546 1547 1548 1549 1551 1552 1553 1554 1555 1556 1557 1558 1559 1559 1560 1561 1562 1562 1560 1559 1558 1557 1557 1556 1555 1556 1557 1557 1558 1557 1555 1553 1551 1550 1550 1551 1553 1554 1553 1552 1549 1544 1542 1541 1536 1531 1527
1459 1462 1465 1468 1471 1474 1478 1481 1484 1487 1490 1492 1495 1497 1500 1502 1505 1507 1510 1511 1513 1515 1517 1518 1520 1522 1523 1524 1525 1526 1528 1530 1532 1534 1536 1538 1539 1540 1541 1542 1543 1544 1546 1547 1549 1550 1551 1552 1553 1554 1554 1555 1556 1558 1558 1558 1557 1556 1555 1553 1553 1552 1550 1551 1552 1553 1553 1552 1551 1550 1548 1546 1546 1546 1548 1548 1548 1548 1545 1540 1539 1539 1534 1528 1525
1456 1459 1462 1465 1468 1471 1475 1478 1480 1483 1486 1488 1491 1494 1496 1499 1502 1504 1506 1508 1510 1512 1513 1515 1516 1518 1519 1520 1521 1522 1524 1526 1528 1530 1532 1533 1534 1535 1537 1538 1539 1539 1541 1543 1544 1545 1546 1547 1549 1549 1550 1551 1553 1554 1555 1554 1554 1553 1552 1550 1549 1547 1546 1548 1549 1549 1549 1548 1546 1544 1542 1541 1542 1542 1543 1544 1542 1541 1539 1536 1535 1535 1531 1526 1523
1452 1456 1459 1463 1466 1469 1472 1475 1477 1480 1482 1485 1488 1491 1493 1496 1498 1500 1502 1504 1506 1508 1510 1511 1512 1513 1515 1516 1517 1518 1520 1521 1523 1525 1527 1529 1530 1531 1533 1533 1534 1535 1536 1538 1539 1540 1541 1543 1544 1545 1546 1548 1549 1550 1551 1551 1550 1550 1549 1547 1545 1543 1544 1545 1546 1546 1546 1544 1542 1539 1538 1538 1538 1538 1538 1539 1538 1536 1533 1532 1531 1530 1526 1523 1521
1450 1454 1457 1461 1464 1467 1470 1472 1475 1477 1480 1482 1486 1488 1490 1493 1495 1497 1499 1501 1503 1504 1506 1507 1508 1509 1511 1512 1513 1514 1515 1517 1519 1520 1522 1524 1525 1527 1528 1528 1529 1530 1532 1534 1535 1536 1537 1538 1540 1541 1543 1544 1546 1547 1547 1547 1547 1547 1546 1544 1542 1541 1542 1543 1543 1543 1542 1540 1538 1536 1536 1535 1535 1534 1534 1534 1533 1531 1529 1527 1526 1525 1522 1519 1517
1448 1452 1455 1459 1461 1464 1467 1470 1472 1475 1477 1480 1483 1485 1487 1489 1491 1493 1495 1497 1499 1500 1501 1503 1504 1506 1507 1508 1509 1510 1511 1513 1515 1516 1518 1520 1521 1523 1523 1524 1525 1527 1528 1530 1531 1532 1533 1534 1536 1538 1539 1540 1542 1543 1543 1543 1543 1543 1543 1542 1541 1541 1540 1540 1540 1539 1537 1535 1535 1534 1533 1533 1531 1530 1530 1529 1529 1527 1526 1524 1522 1521 1519 1516 1513
1447 1450 1453 1456 1459 1462 1465 1467 1470 1472 1475 1477 1479 1481 1483 1486 1488 1490 1492 1493 1495 1496 1498 1499 1501 1502 1503 1504 1505 1506 1508 1510 1511 1513 1514 1516 1517 1518 1519 1520 1522 1523 1524 1525 1527 1528 1529 1530 1532 1534 1535 1536 1537 1539 1539 1539 1539 1539 1539 1540 1540 1539 1538 1538 1536 1535 1534 1533 1532 1531 1530 1530 1528 1527 1526 1525 1524 1523 1522 1521 1520 1518 1516 1514 1511
1445 1448 1451 1454 1457 1460 1462 1465 1467 1470 1472 1474 1476 1478 1480 1482 1484 1486 1488 1490 1491 1492 1494 1496 1497 1498 1499 1500 1501 1503 1504 1506 1507 1509 1510 1512 1513 1514 1515 1517 1519 1520 1520 1521 1523 1524 1525 1527 1528 1530 1531 1532 1533 1534 1535 1535 1535 1535 1536 1538 1538 1538 1537 1536 1533 1532 1532 1531 1530 1528 1528 1527 1526 1524 1523 1522 1520 1520 1519 1517 1516 1513 1511 1510 1507
1444 1446 1449 1452 1455 1457 1460 1462 1465 1467 1469 1471 1473 1475 1477 1479 1481 1482 1484 1486 1487 1489 1490 1492 1493 1494 1495 1496 1497 1499 1500 1502 1503 1505 1506 1508 1509 1510 1512 1513 1515 1516 1516 1518 1519 1521 1521 1522 1524 1525 1526 1528 1529 1530 1531 1531 1531 1532 1533 1534 1535 1536 1537 1534 1531 1530 1530 1529 1528 1527 1526 1525 1524 1522 1521 1520 1518 1517 1516 1514 1511 1509 1506 1505 1503
1442 1444 1447 1450 1452 1455 1457 1460 1462 1464 1466 1468 1470 1472 1474 1475 1477 1478 1480 1482 1483 1485 1486 1488 1489 1490 1491 1492 1494 1495 1496 1498 1499 1500 1502 1504 1505 1506 1508 1509 1510 1511 1512 1514 1515 1516 1517 1518 1520 1521 1522 1523 1524 1525 1526 1527 1528 1528 1530 1530 1531 1532 1535 1534 1530 1528 1528 1527 1526 1525 1524 1523 1522 1520 1519 1517 1515 1513 1512 1510 1508 1505 1502 1500 1498
1439 1442 1445 1448 1450 1453 1455 1457 1459 1461 1463 1465 1467 1469 1470 1472 1473 1475 1476 1478 1479 1481 1482 1484 1485 1486 1487 1488 1490 1491 1492 1493 1495 1496 1498 1499 1501 1502 1503 1505 1506 1507 1508 1509 1510 1511 1513 1514 1515 1517 1518 1519 1520 1521 1522 1523 1524 1524 1525 1526 1527 1528 1530 1530 1529 1527 1526 1525 1524 1523 1522 1521 1520 1518 1516 1514 1513 1511 1509 1507 1505 1502 1499 1496 1493
1438 1441 1443 1446 1448 1450 1452 1454 1456 1458 1460 1462 1463 1465 1467 1468 1469 1470 1472 1473 1475 1477 1478 1479 1480 1481 1483 1484 1486 1487 1488 1489 1490 1492 1493 1495 1496 1498 1499 1500 1502 1503 1503 1504 1506 1507 1509 1510 1511 1513 1514 1515 1516 1517 1518 1519 1520 1520 1521 1522 1523 1524 1525 1526 1526 1525 1523 1522 1522 1521 1520 1519 1517 1516 1515 1513 1511 1509 1506 1504 1502 1499 1497 1494 1490
1436 1439 1441 1443 1446 1448 1449 1451 1453 1455 1457 1458 1460 1461 1463 1464 1465 1466 1467 1469 1471 1472 1474 1475 1476 1478 1480 1481 1482 1483 1484 1485 1486 1488 1489 1490 1492 1493 1494 1496 1497 1498 1499 1501 1503 1504 1505 1506 1508 1509 1510 1511 1512 1513 1514 1515 1515 1516 1517 1519 1520 1520 1521 1521 1522 1522 1521 1521 1520 1519 1519 1518 1516 1515 1514 1512 1510 1507 1504 1502 1500 1497 1495 1493 1489
1434 1437 1439 1441 1443 1445 1447 1449 1451 1452 1454 1455 1456 1458 1459 1460 1461 1462 1463 1465 1467 1469 1470 1472 1473 1475 1477 1478 1479 1479 1480 1481 1482 1484 1485 1486 1487 1488 1489 1491 1493 1495 1496 1498 1500 1501 1502 1503 1504 1505 1506 1508 1508 1509 1510 1510 1511 1512 1514 1515 1516 1517 1517 1517 1518 1518 1518 1518 1518 1517 1517 1516 1515 1513 1512 1510 1508 1505 1502 1500 1498 1496 1494 1491 1488
1434 1436 1438 1440 1441 1443 1445 1446 1448 1450 1451 1452 1453 1454 1455 1456 1458 1459 1460 1461 1463 1465 1467 1468 1470 1472 1473 1474 1474 1475 1476 1478 1479 1480 1481 1482 1483 1484 1485 1487 1489 1491 1493 1494 1496 1497 1498 1499 1500 1502 1503 1504 1504 1505 1506 1507 1508 1509 1510 1511 1512 1513 1514 1514 1515 1515 1516 1515 1515 1515 1514 1513 1512 1511 1509 1508 1506 1504 1501 1499 1497 1494 1492 1490 1487
1434 1436 1437 1439 1440 1441 1443 1444 1446 1447 1448 1449 1450 1451 1452 1453 1454 1455 1456 1458 1459 1461 1463 1465 1466 1468 1469 1470 1471 1472 1473 1474 1475 1476 1477 1478 1479 1481 1482 1484 1485 1487 1489 1490 1491 1492 1494 1495 1496 1498 1499 1500 1500 1501 1502 1504 1505 1506 1507 1508 1509 1510 1510 1511 1511 1512 1512 1512 1512 1512 1511 1510 1509 1508 1507 1505 1504 1502 1500 1497 1495 1493 1490 1488 1486
1435 1436 1437 1438 1439 1440 1441 1442 1443 1445 1446 1446 1447 1449 1449 1450 1451 1452 1453 1454 1456 1457 1459 1461 1462 1464 1465 1466 1468 1469 1470 1471 1472 1473 1474 1475 1476 1478 1479 1480 1482 1483 1485 1486 1487 1488 1490 1491 1492 1494 1495 1496 1497 1498 1499 1501 1502 1503 1504 1505 1506 1507 1507 1508 1509 1509 1509 1509 1509 1509 1508 1507 1506 1505 1504 1503 1502 1500 1498 1496 1494 1492 1490 1488 1486
1434 1435 1436 1437 1438 1439 1440 1440 1442 1443 1443 1444 1445 1446 1447 1448 1448 1449 1450 1451 1452 1454 1455 1457 1458 1460 1461 1463 1464 1466 1467 1468 1469 1470 1471 1472 1473 1474 1476 1477 1478 1480 1481 1482 1484 1485 1486 1488 1489 1490 1491 1492 1494 1495 1496 1498 1499 1500 1502 1503 1504 1504 1505 1506 1506 1506 1506 1506 1506 1505 1505 1504 1503 1502 1502 1501 1499 1498 1496 1494 1493 1491 1489 1487 1485
1433 1434 1435 1435 1436 1437 1438 1439 1440 1441 1442 1442 1443 1444 1445 1446 1446 1447 1448 1448 1449 1450 1452 1453 1454 1456 1458 1459 1461 1463 1464 1465 1466 1468 1469 1470 1471 1472 1473 1474 1476 1477 1478 1480 1481 1482 1484 1485 1486 1488 1489 1490 1491 1493 1494 1496 1498 1499 1500 1501 1502 1502 1503 1503 1503 1503 1503 1503 1503 1503 1502 1501 1501 1500 1500 1499 1497 1496 1495 1493 1492 1490 1488 1486 1485
1432 1432 1433 1434 1435 1436 1437 1438 1438 1439 1440 1441 1441 1442 1443 1444 1444 1445 1445 1446 1447 1448 1449 1450 1451 1453 1455 1456 1458 1460 1462 1463 1464 1465 1466 1467 1468 1469 1471 1472 1473 1474 1476 1477 1479 1480 1481 1482 1484 1485 1487 1488 1490 1491 1493 1495 1497 1497 1498 1499 1500 1500 1501 1501 1501 1501 1501 1501 1501 1500 1500 1500 1499 1499 1498 1497 1496 1494 1493 1492 1491 1489 1487 1485 1484
1431 1431 1432 1434 1435 1436 1436 1437 1437 1438 1438 1439 1440 1441 1441 1442 1442 1443 1443 1444 1445 1445 1446 1448 1449 1450 1452 1454 1456 1457 1459 1460 1462 1463 1464 1465 1466 1467 1468 1469 1471 1472 1473 1475 1476 1477 1479 1481 1483 1484 1486 1487 1489 1491 1493 1494 1495 1496 1496 1497 1498 1498 1499 1499 1499 1499 1499 1499 1499 1499 1498 1498 1498 1497 1497 1496 1494 1493 1492 1491 1490 1488 1486 1484 1483
1430 1431 1433 1434 1435 1435 1435 1436 1436 1436 1437 1437 1438 1439 1440 1440 1441 1441 1442 1442 1443 1444 1445 1446 1447 1449 1450 1452 1453 1455 1457 1458 1459 1460 1461 1462 1463 1464 1466 1467 1468 1469 1470 1471 1473 1474 1477 1480 1482 1484 1486 1487 1489 1490 1492 1492 1493 1494 1494 1495 1496 1497 1497 1497 1497 1497 1497 1497 1497 1497 1497 1497 1497 1496 1495 1494 1493 1492 1491 1490 1489 1487 1485 1484 1482
1429 1431 1432 1433 1434 1434 1434 1435 1435 1434 1435 1436 1436 1437 1438 1439 1439 1440 1440 1441 1442 1443 1444 1445 1446 1447 1448 1450 1451 1453 1454 1455 1456 1457 1458 1459 1460 1462 1463 1465 1466 1466 1466 1468 1470 1473 1476 1479 1482 1484 1486 1487 1488 1490 1491 1491 1492 1493 1493 1494 1495 1495 1495 1495 1495 1496 1496 1496 1496 1496 1496 1496 1495 1494 1494 1493 1492 1491 1490 1489 1488 1486 1485 1483 1482
1429 1431 1432 1432 1432 1433 1434 1434 1433 1433 1433 1433 1434 1435 1436 1437 1438 1438 1439 1440 1441 1442 1442 1443 1444 1445 1446 1447 1449 1450 1451 1452 1453 1454 1455 1456 1457 1459 1460 1462 1464 1465 1466 1467 1470 1473 1476 1479 1481 1484 1485 1487 1488 1489 1490 1490 1491 1492 1492 1493 1493 1494 1494 1494 1494 1495 1495 1495 1495 1495 1495 1495 1494 1493 1492 1492 1491 1491 1490 1489 1488 1486 1485 1484 1482
1430 1431 1431 1431 1431 1432 1432 1432 1432 1432 1431 1431 1432 1433 1434 1435 1436 1437 1438 1439 1439 1440 1441 1442 1442 1443 1444 1445 1445 1446 1447 1448 1449 1450 1451 1453 1455 1457 1460 1462 1464 1466 1467 1468 1471 1474 1477 1479 1481 1483 1484 1486 1487 1488 1489 1490 1490 1491 1492 1492 1492 1493 1493 1493 1494 1494 1494 1494 1494 1494 1494 1494 1493 1492 1492 1492 1491 1490 1490 1489 1487 1486 1485 1484 1483
1429 1431 1431 1431 1430 1430 1431 1431 1431 1430 1429 1429 1430 1431 1432 1433 1434 1436 1436 1437 1438 1438 1439 1440 1441 1441 1442 1442 1442 1444 1445 1445 1446 1448 1450 1452 1454 1457 1460 1463 1465 1466 1467 1469 1471 1474 1477 1479 1481 1482 1483 1485 1486 1487 1488 1489 1490 1490 1491 1491 1492 1492 1493 1493 1493 1493 1493 1493 1493 1493 1493 1493 1492 1492 1492 1491 1491 1490 1489 1488 1487 1486 1485 1484 1483
1428 1430 1430 1430 1430 1430 1430 1430 1429 1428 1428 1427 1427 1428 1429 1431 1432 1434 1435 1435 1436 1437 1438 1438 1439 1439 1439 1439 1440 1442 1444 1446 1447 1449 1451 1453 1454 1455 1457 1460 1462 1464 1466 1469 1472 1474 1476 1478 1480 1481 1482 1484 1485 1486 1487 1488 1489 1489 1490 1490 1491 1492 1492 1492 1493 1493 1492 1492 1492 1492 1492 1492 1491 1491 1491 1491 1490 1490 1489 1488 1487 1486 1485 1484 1483
1427 1428 1428 1429 1429 1429 1429 1429 1428 1426 1425 1425 1425 1426 1427 1428 1430 1431 1433 1434 1435 1436 1436 1436 1436 1437 1438 1439 1439 1440 1443 1447 1450 1452 1454 1454 1454 1455 1456 1459 1462 1465 1467 1470 1472 1474 1476 1477 1479 1480 1481 1483 1484 1485 1486 1487 1488 1488 1489 1490 1491 1491 1492 1492 1492 1492 1492 1492 1491 1491 1491 1491 1491 1490 1490 1490 1489 1489 1488 1487 1486 1485 1485 1484 1483
1425 1426 1426 1427 1428 1428 1428 1427 1426 1424 1423 1423 1423 1424 1425 1427 1428 1430 1431 1432 1433 1434 1434 1435 1435 1436 1438 1441 1441 1440 1442 1445 1449 1452 1454 1455 1456 1457 1457 1459 1463 1467 1469 1470 1472 1473 1475 1477 1478 1480 1481 1482 1483 1485 1486 1486 1487 1488 1489 1489 1490 1491 1491 1491 1492 1491 1491 1491 1491 1491 1491 1490 1490 1490 1489 1489 1489 1488 1487 1486 1485 1485 1484 1483 1483
1422 1423 1424 1425 1426 1427 1427 1426 1424 1422 1421 1421 1422 1423 1424 1426 1427 1428 1430 1431 1432 1433 1434 1435 1436 1436 1438 1441 1442 1441 1442 1444 1446 1449 1451 1453 1455 1456 1457 1459 1463 1467 1469 1471 1472 1473 1475 1476 1478 1479 1481 1482 1483 1484 1485 1486 1486 1487 1488 1489 1489 1490 1490 1491 1491 1491 1491 1490 1490 1490 1490 1490 1489 1489 1489 1488 1487 1487 1486 1485 1484 1483 1483 1482 1482
1420 1421 1421 1423 1425 1426 1426 1424 1422 1420 1419 1419 1420 1422 1423 1425 1426 1428 1429 1429 1430 1432 1433 1434 1436 1437 1438 1439 1440 1440 1441 1444 1446 1448 1450 1453 1455 1456 1457 1460 1464 1467 1469 1471 1472 1473 1474 1476 1477 1479 1480 1481 1482 1483 1484 1485 1485 1486 1487 1488 1488 1489 1489 1490 1490 1490 1490 1490 1489 1489 1489 1489 1489 1488 1488 1487 1486 1485 1485 1484 1483 1482 1482 1481 1481
1419 1419 1421 1422 1424 1426 1426 1424 1421 1419 1417 1417 1419 1420 1422 1424 1425 1427 1428 1429 1430 1431 1433 1434 1436 1437 1438 1440 1441 1442 1444 1446 1447 1448 1451 1454 1456 1458 1459 1462 1464 1467 1469 1470 1471 1473 1474 1476 1477 1479 1480 1480 1481 1482 1483 1483 1484 1485 1485 1486 1487 1487 1488 1488 1488 1488 1488 1488 1488 1488 1488 1488 1488 1487 1487 1486 1485 1484 1484 1483 1482 1481 1481 1480 1480
1419 1419 1420 1421 1423 1425 1426 1424 1421 1418 1417 1417 1418 1419 1421 1423 1425 1426 1428 1429 1430 1431 1433 1435 1437 1439 1440 1442 1444 1445 1447 1449 1451 1452 1453 1455 1457 1459 1460 1462 1464 1466 1467 1469 1470 1472 1474 1475 1477 1478 1479 1479 1480 1480 1481 1481 1482 1483 1483 1484 1485 1485 1486 1486 1486 1486 1486 1486 1486 1486 1486 1486 1486 1486 1485 1485 1484 1483 1483 1482 1481 1480 1479 1479 1479
1420 1418 1418 1419 1422 1424 1425 1424 1421 1418 1416 1416 1417 1419 1421 1423 1425 1426 1428 1429 1430 1432 1434 1435 1437 1440 1442 1444 1446 1447 1449 1450 1453 1455 1457 1457 1458 1459 1461 1462 1464 1465 1467 1468 1470 1472 1473 1475 1476 1476 1477 1478 1478 1479 1479 1480 1480 1481 1482 1482 1483 1483 1483 1483 1483 1483 1483 1483 1483 1484 1484 1484 1484 1484 1483 1483 1482 1482 1481 1480 1480 1479 1478 1478 1477
1422 1419 1416 1416 1419 1422 1424 1424 1421 1418 1416 1416 1417 1419 1421 1424 1426 1428 1430 1432 1433 1436 1438 1439 1440 1441 1443 1445 1447 1449 1450 1452 1454 1458 1459 1459 1459 1460 1461 1462 1464 1466 1467 1468 1470 1471 1472 1473 1474 1475 1476 1476 1477 1477 1478 1478 1478 1479 1479 1480 1480 1480 1480 1480 1480 1480 1480 1480 1481 1481 1481 1481 1481 1481 1481 1480 1480 1480 1479 1478 1477 1477 1477 1476 1476
1423 1420 1416 1414 1416 1420 1423 1424 1422 1420 1417 1417 1418 1420 1422 1425 1428 1431 1433 1435 1436 1437 1440 1441 1442 1443 1445 1447 1449 1450 1451 1452 1454 1458 1461 1461 1460 1460 1462 1463 1464 1466 1467 1468 1469 1470 1471 1472 1473 1473 1474 1475 1475 1476 1476 1476 1476 1477 1477 1477 1477 1477 1477 1477 1477 1478 1478 1478 1478 1478 1478 1478 1478 1478 1478 1478 1478 1477 1476 1476 1475 1474 1474 1474 1474